Dewpoint
59 55 44 42 44 42 32 27 20 22 20 14 5 -1 -1 2 -2 -7 -4 -2 -5 -3 24 21 22 21 14 36 41 50 52 49 50 51 55 61 65 67 68 70 69 69 69 70 71 71 72 73 74 74 74 75 75 75 75 75 74 74 74 74 74 74 74 74 73 73 73 73 73 73 72 72 72 72 72 72 71 70 71 68 68 67 67 68 68 69 69 68 68 68 68 68 68 68 67 68 69
44 43 44 44 37 31 27 24 20 14 19 16 10 3 -3 -6 -8 -11 -11 -10 -14 32 31 29 25 24 35 37 39 47 53 55 56 56 61 63 64 66 68 69 69 69 69 69 69 69 70 72 73 74 74 74 75 75 75 75 74 74 74 74 74 74 74 74 73 73 73 73 73 72 72 72 71 71 71 71 71 71 71 68 67 67 67 67 67 68 68 68 68 67 67 67 69 69 69 69 69
41 46 36 30 24 24 26 27 18 13 5 3 3 3 -1 -13 -15 -13 -13 -10 24 33 32 31 32 33 30 27 30 40 50 55 56 59 62 65 63 67 69 69 69 69 68 67 67 68 69 72 73 74 74 74 75 75 75 75 74 74 74 74 74 74 73 73 73 73 73 73 73 72 72 72 72 70 69 70 71 72 72 71 67 67 67 66 66 66 67 66 67 66 66 68 69 68 69 69 69
40 42 36 22 18 20 20 17 18 11 5 0 -3 -5 -6 -10 -13 11 15 21 22 26 26 28 25 30 41 39 43 54 53 53 56 59 59 62 64 66 68 69 70 68 68 67 66 66 70 72 73 74 74 74 74 75 75 75 74 74 74 74 74 74 73 73 73 73 73 73 72 72 72 72 71 70 69 69 71 71 71 71 71 68 67 66 66 65 66 66 66 66 67 68 68 68 68 68 69
36 36 28 25 23 23 17 9 5 7 2 -5 -6 11 7 19 19 24 21 24 25 20 28 26 27 39 52 51 51 47 51 54 59 60 60 63 67 68 68 68 68 67 67 67 66 67 70 73 73 73 74 74 74 74 74 75 74 74 74 74 74 73 73 73 73 73 73 72 73 72 72 72 71 69 69 69 71 71 71 71 71 71 71 71 71 71 70 71 69 67 66 67 67 67 67 66 68
24 28 28 22 24 26 23 20 12 1 2 1 -4 6 15 23 24 25 28 29 24 25 25 34 31 39 50 53 54 55 57 56 56 61 61 64 66 68 69 70 67 67 67 67 67 68 71 73 72 73 74 74 74 74 74 74 74 74 74 74 73 73 73 73 73 73 72 72 73 72 72 72 70 70 70 69 71 70 71 71 71 71 70 70 71 70 70 70 70 70 67 67 67 67 67 67 67
23 24 22 19 15 18 19 14 9 4 1 -0 -2 -2 -3 26 28 27 24 26 26 25 24 28 35 38 50 52 54 58 59 57 58 59 63 64 66 67 68 68 67 67 68 68 67 68 72 72 72 73 73 74 74 74 74 74 74 74 74 73 73 73 73 73 73 73 72 72 72 72 71 71 71 71 70 70 71 71 71 71 70 69 71 70 70 70 69 69 69 68 68 68 68 69 69 69 69
27 22 20 16 12 11 8 3 1 1 -0 -4 -5 -6 19 23 28 22 21 26 22 23 28 25 35 36 45 53 53 58 60 61 61 62 63 65 64 66 68 68 68 67 68 68 68 70 73 72 73 73 73 73 74 74 74 74 74 74 74 73 73 73 73 73 73 73 72 73 73 72 72 71 71 71 71 71 70 71 70 70 68 70 69 70 70 70 69 69 68 69 70 69 69 69 69 68 68
17 15 20 19 17 12 8 6 2 -2 -6 -7 -3 6 30 12 12 15 11 6 16 24 28 30 36 38 42 52 55 59 62 62 62 64 63 65 64 64 66 68 67 68 68 68 70 71 72 72 73 73 73 73 74 74 74 74 74 74 74 73 73 72 73 73 73 73 73 73 73 73 72 72 72 72 71 71 71 70 70 70 70 69 69 69 68 68 67 68 68 69 69 69 69 68 68 68 68
13 14 19 21 16 12 6 4 4 1 -2 -5 -7 -3 0 6 10 9 12 9 19 21 22 34 36 39 46 53 56 60 61 62 62 63 63 64 65 65 64 66 68 67 68 69 68 69 71 74 73 73 73 73 74 74 74 73 73 73 73 73 73 73 73 73 73 73 73 73 73 73 72 73 72 72 71 71 70 71 70 70 70 68 68 68 68 67 67 68 68 68 69 68 68 68 67 67 67
12 12 11 12 13 10 5 -1 -3 -1 1 -2 -7 -1 -0 3 10 7 5 7 8 19 26 33 37 36 44 52 60 62 64 63 61 61 62 63 64 64 64 66 67 69 69 67 68 69 71 72 74 73 73 73 73 73 73 73 73 73 73 73 73 73 73 73 73 73 73 73 73 73 73 72 72 71 71 71 71 71 71 71 70 69 70 69 68 68 67 68 68 68 67 68 67 67 68 68 67
16 12 12 6 7 6 4 4 -2 -6 -5 -6 -4 3 1 -1 2 -0 -1 -0 3 19 23 35 34 33 47 53 58 61 63 64 63 61 62 62 62 63 63 63 67 68 68 68 68 69 69 71 72 74 74 73 73 74 73 73 73 73 72 72 72 73 73 73 73 73 73 73 73 72 72 72 72 71 71 72 71 71 71 70 70 69 69 68 69 70 69 68 68 67 67 68 67 68 68 67 67
14 12 12 11 7 2 -1 -4 -5 -1 -4 -2 -2 5 3 2 2 0 0 -1 3 8 18 32 33 42 50 51 62 60 60 63 61 61 61 62 63 62 62 63 65 67 68 69 68 68 68 70 70 71 72 72 72 74 74 74 73 73 73 73 73 73 73 73 73 73 73 73 72 72 72 72 72 72 71 72 71 71 71 70 70 70 69 70 70 70 70 69 68 67 67 68 67 68 68 69 68
11 11 11 11 10 7 3 -1 -3 -4 -2 -3 -1 3 3 3 3 2 1 -0 1 7 14 29 42 50 52 55 59 61 60 62 64 61 61 62 64 63 63 62 66 66 67 67 67 67 69 69 71 70 71 71 71 69 69 72 73 73 72 73 73 73 73 73 73 73 73 73 73 73 72 72 72 72 72 72 71 70 70 71 71 69 69 70 70 70 69 68 68 67 68 68 67 67 67 68 69
10 9 9 8 4 6 4 2 -4 -6 -3 4 4 1 6 6 4 2 2 1 1 5 13 30 38 43 50 52 56 59 60 59 62 61 63 64 64 64 62 63 64 66 64 66 67 68 67 68 69 70 71 70 70 68 68 70 72 73 73 73 73 72 72 73 73 71 71 72 73 73 73 72 72 72 72 72 71 70 70 70 70 70 69 70 70 70 69 69 68 68 68 68 67 67 68 68 69
11 10 13 15 7 5 2 -2 -2 -2 -2 -5 7 5 5 5 4 4 4 6 4 5 12 27 34 45 47 43 52 58 61 60 63 65 63 63 64 64 62 63 61 61 64 65 67 68 69 69 70 71 70 69 71 69 68 68 69 73 72 72 72 73 72 72 71 70 70 70 70 70 71 73 72 72 72 72 72 70 70 69 71 70 70 70 70 70 69 69 68 68 68 68 68 68 68 68 68
12 11 12 10 8 5 0 -3 -4 -5 -6 7 6 5 6 6 5 9 13 12 10 3 8 33 31 40 41 43 54 60 62 64 65 64 64 63 64 63 64 63 62 62 62 65 67 69 69 69 68 68 70 70 70 69 70 68 67 72 72 72 72 72 72 71 70 70 69 69 67 66 68 70 71 71 71 68 70 70 70 70 70 69 70 70 70 70 70 69 69 68 68 69 68 68 67 68 68
11 13 8 8 7 4 -0 -4 -4 -1 -3 3 6 9 8 7 4 9 18 16 13 12 18 34 49 53 53 51 57 61 62 64 64 62 62 62 63 61 61 63 62 62 64 67 68 68 70 69 68 68 70 70 70 68 69 68 68 70 72 72 72 73 72 71 69 68 70 68 66 66 68 70 71 71 71 68 70 70 71 70 70 70 70 70 71 71 70 70 69 69 68 69 68 68 67 66 67
11 12 10 6 4 1 -1 -1 -5 1 -2 3 7 9 8 6 7 10 15 20 18 11 18 45 50 54 58 61 61 62 62 64 64 63 61 62 62 62 62 63 63 64 65 65 66 65 67 69 70 69 68 70 69 67 69 68 69 71 71 70 71 71 72 70 69 68 67 68 66 65 68 70 70 70 70 69 69 70 69 70 70 70 70 70 70 70 70 70 70 69 69 69 68 68 66 64 64
9 10 7 4 2 -1 -1 0 3 4 3 3 5 7 7 5 6 18 22 21 18 12 11 34 46 53 55 58 60 61 61 61 64 62 60 61 62 62 63 63 64 64 65 64 65 68 69 68 68 69 67 69 70 68 68 71 71 71 70 69 69 70 71 70 67 66 67 69 67 68 69 69 69 69 69 70 71 69 69 70 71 70 70 71 70 70 69 69 70 69 69 68 68 65 61 61 61
9 6 3 3 2 -3 1 1 2 4 3 5 6 6 5 3 12 21 20 18 16 15 8 15 49 52 55 57 58 60 60 60 60 61 62 61 62 62 63 64 63 64 65 64 68 66 65 62 61 68 66 67 71 72 71 71 72 71 72 71 69 71 71 70 69 69 71 68 69 69 69 67 67 67 70 70 68 69 68 69 70 70 69 68 70 68 67 67 68 67 67 67 63 61 58 58 59
6 5 3 1 -2 -3 -1 1 3 4 7 7 6 4 3 6 9 9 16 19 17 16 9 16 32 49 51 57 58 59 59 60 60 59 61 62 62 62 64 62 65 66 66 65 67 63 62 61 62 62 66 68 69 70 71 72 72 71 72 73 72 71 70 69 70 68 68 67 67 68 68 67 67 69 69 69 69 70 70 68 68 70 68 66 68 68 68 68 67 63 65 62 61 60 59 60 60
5 5 4 3 3 3 3 3 4 7 6 5 4 4 6 7 7 11 20 18 16 43 44 27 39 49 51 56 58 59 59 59 59 60 59 60 59 57 63 63 64 65 64 65 69 63 62 60 62 62 62 66 66 66 68 71 71 72 70 71 69 70 72 70 68 67 67 67 66 67 68 67 69 70 69 70 67 67 66 68 69 69 69 70 67 66 67 66 65 64 65 62 62 61 61 62 61
1 2 2 3 3 1 1 2 3 6 6 4 6 6 6 5 6 18 17 17 26 40 46 46 45 47 53 54 58 59 59 58 60 60 59 60 60 58 60 63 63 63 65 65 65 62 63 57 60 60 61 61 65 65 69 69 70 69 69 70 70 73 70 68 67 67 67 66 68 67 71 69 68 69 69 68 66 66 67 67 69 68 65 68 67 66 67 65 64 65 66 61 62 63 61 62 61
-2 -0 2 1 2 3 2 1 2 5 4 6 7 5 5 7 10 20 12 21 25 42 39 45 46 51 54 56 57 60 60 60 60 59 60 57 57 61 64 63 61 62 63 63 61 60 59 60 60 57 62 60 65 64 66 69 71 69 68 69 71 72 68 69 69 68 69 68 67 68 70 70 69 67 68 68 68 67 66 66 66 66 65 67 67 67 65 64 65 65 66 64 64 64 65 65 61
1 2 1 -0 -1 2 3 2 2 2 3 6 6 4 6 8 16 17 21 24 25 36 31 39 41 42 54 55 58 60 60 60 59 59 58 57 60 64 59 59 58 60 62 62 61 60 53 55 54 58 60 58 61 64 66 68 69 70 69 69 69 69 70 72 71 70 73 73 70 68 69 71 69 68 67 67 66 65 66 66 65 65 65 67 66 66 67 66 69 68 67 65 59 61 62 65 64
3 2 2 -1 -5 -2 2 1 1 1 4 5 6 5 5 10 12 25 26 25 23 24 24 32 38 41 44 54 59 60 59 60 58 57 55 57 62 62 60 56 53 55 58 54 56 57 61 53 54 56 55 63 55 53 62 66 66 66 67 66 68 66 68 67 70 70 69 71 72 72 69 70 69 70 68 67 67 67 67 67 66 67 67 68 67 66 66 66 69 68 66 65 63 60 60 61 62
-3 0 4 1 -2 -2 0 0 3 3 4 7 5 4 9 12 11 20 23 24 21 15 30 37 34 36 45 53 54 57 59 60 59 55 54 56 59 62 55 56 56 55 56 56 59 58 59 54 54 54 58 65 66 54 59 57 60 60 64 65 64 65 67 66 66 68 70 72 70 70 71 70 69 70 69 67 66 67 67 69 69 69 69 69 68 65 65 67 66 64 64 64 65 62 62 63 65
2 8 6 7 6 2 1 1 4 5 4 6 5 3 8 10 7 24 25 24 19 18 25 24 33 40 41 46 53 54 56 57 55 54 56 62 57 58 59 57 57 55 57 60 59 59 62 65 60 58 54 66 65 62 59 60 60 53 59 60 63 66 65 65 66 69 69 70 70 70 69 69 69 70 68 67 67 68 67 68 67 68 67 70 70 67 66 67 65 64 64 62 61 63 62 63 62
3 4 4 1 0 1 1 1 2 2 1 6 5 6 6 6 11 19 24 21 19 21 23 22 16 32 44 49 52 54 53 54 53 58 61 57 57 58 56 62 58 56 57 59 59 60 65 63 63 64 60 55 67 60 63 61 60 61 60 63 65 68 69 67 67 70 70 70 70 68 68 67 67 70 69 69 68 67 67 67 69 69 69 67 67 68 67 67 65 64 62 62 63 64 63 64 62
4 2 -0 1 0 1 0 0 1 0 0 7 6 8 3 6 13 21 24 21 20 19 18 24 20 16 33 50 51 49 49 47 51 52 56 57 57 58 56 63 57 59 57 56 57 59 67 61 64 62 63 62 62 60 59 60 65 57 57 60 62 66 67 68 69 68 68 68 68 68 67 67 67 68 69 70 69 66 66 67 67 69 68 68 67 67 65 64 66 66 64 63 63 64 66 66 66
4 0 1 -2 -1 -1 -1 2 0 -0 3 7 6 9 2 5 8 14 16 17 19 19 20 21 31 38 40 47 47 45 45 43 45 49 52 54 56 57 58 61 60 56 58 56 58 60 60 62 65 63 66 63 65 63 63 64 64 66 61 60 65 66 66 62 69 67 67 68 68 68 66 66 66 67 67 68 67 65 67 67 68 68 67 68 68 66 65 64 66 64 64 64 63 64 63 66 66
4 1 12 5 -1 -5 -0 2 2 3 4 6 5 2 1 3 8 11 12 13 14 15 21 22 33 30 33 39 46 47 45 46 44 45 50 51 54 56 57 58 63 58 58 57 57 61 59 62 65 66 65 64 64 64 62 65 66 60 61 62 54 63 65 64 64 65 66 67 68 68 66 67 68 68 67 67 66 65 66 66 68 68 68 67 67 67 64 64 64 63 63 64 64 63 64 63 62
8 2 3 6 1 0 1 3 3 4 2 4 6 3 1 7 7 10 10 9 10 13 17 21 42 36 37 40 47 52 53 48 43 48 52 52 50 54 55 58 62 58 57 59 59 61 59 60 65 65 65 64 65 65 63 62 63 59 64 61 61 59 60 65 63 60 64 68 66 66 67 68 69 67 67 67 68 65 66 66 68 67 66 67 66 65 65 64 63 63 62 63 63 63 64 64 63
16 12 8 5 4 2 0 3 4 6 3 3 6 5 2 7 9 10 9 8 9 15 14 18 35 43 45 53 53 52 54 55 52 49 51 53 55 49 49 56 64 58 57 61 60 63 60 61 65 65 64 64 64 62 65 63 62 66 55 61 56 59 63 57 63 61 62 64 66 66 66 67 66 66 66 67 67 65 66 67 67 67 66 66 66 64 64 63 63 63 62 63 64 65 65 65 63
12 13 7 3 7 0 -3 3 6 6 5 3 5 5 1 5 7 8 11 12 13 13 25 26 29 42 48 51 51 52 54 54 56 49 49 51 51 53 51 49 60 58 60 62 60 62 60 64 64 65 64 64 63 64 62 59 61 62 56 60 57 57 55 57 60 58 64 64 64 63 62 65 64 64 65 67 65 65 65 65 66 66 66 66 65 64 64 64 64 63 63 63 64 64 65 65 64
16 14 7 4 6 5 3 5 7 7 7 8 6 8 5 4 8 11 11 15 15 14 20 24 21 30 41 47 50 52 51 52 53 46 47 47 48 53 54 47 58 59 60 61 60 62 61 61 63 63 63 62 60 59 59 57 59 60 63 60 55 59 54 57 59 59 59 59 57 55 58 60 60 62 63 63 65 63 64 66 65 65 65 65 66 64 64 64 65 64 64 64 64 64 64 64 64
17 16 10 7 5 6 3 6 8 8 16 10 12 10 8 8 11 11 14 15 9 14 17 26 22 20 27 38 49 53 53 50 45 51 46 46 43 51 56 50 58 58 58 60 59 62 60 62 63 63 61 61 62 61 64 67 62 56 59 56 54 53 47 54 56 58 57 58 60 59 60 60 61 61 61 63 64 64 62 64 64 65 66 66 65 65 64 64 63 63 64 64 65 64 62 62 62
19 15 10 8 7 3 11 13 12 12 18 14 11 8 9 11 10 10 14 18 19 20 21 22 25 24 20 21 47 50 48 49 45 47 48 43 46 49 56 53 53 58 59 58 60 61 62 62 63 63 60 60 61 63 60 62 63 61 64 62 62 51 51 54 49 53 54 50 62 59 61 61 60 55 58 58 62 59 61 63 63 64 64 65 65 64 64 63 63 63 63 62 63 63 63 63 62
17 15 10 7 5 4 12 20 14 14 15 13 10 8 13 13 15 15 17 14 21 25 22 27 26 22 24 24 26 48 50 47 45 45 47 44 44 48 53 58 55 58 58 59 59 60 60 61 63 61 61 59 60 60 63 60 62 63 60 59 57 56 52 54 56 57 56 55 55 57 57 60 56 55 53 53 55 59 60 58 62 60 62 64 64 63 63 62 62 63 62 61 63 62 62 63 65
18 17 11 8 4 4 3 13 18 23 20 22 13 18 15 16 11 13 17 12 17 16 16 17 20 16 29 41 44 51 50 47 50 49 48 46 49 47 49 55 54 55 58 57 60 60 59 60 62 62 61 59 58 58 62 59 59 61 60 56 54 53 55 55 56 57 56 56 56 58 58 58 56 56 58 56 54 57 59 59 58 60 63 61 61 60 60 60 61 62 63 63 63 62 59 61 64
14 19 16 12 11 11 10 22 18 20 20 23 17 14 13 13 11 12 12 10 11 16 14 12 17 21 19 24 39 39 55 52 49 48 45 49 52 51 50 51 52 50 54 57 58 61 57 59 61 62 62 58 56 60 60 59 60 59 59 57 54 55 54 57 56 53 56 57 53 59 54 54 56 57 54 55 54 57 58 60 60 57 59 59 60 60 58 57 58 59 61 62 63 61 62 59 60
15 15 14 13 10 15 15 16 20 17 17 21 26 15 13 10 9 11 12 9 13 18 19 15 17 16 14 18 22 30 39 52 51 48 46 48 50 50 50 49 48 48 53 60 57 59 59 61 61 58 61 57 57 59 59 59 60 58 58 55 53 53 54 58 59 59 54 56 58 58 59 60 55 58 58 56 56 56 58 58 55 51 51 55 55 56 56 59 56 53 60 59 61 63 62 59 59
10 23 15 12 13 14 16 15 16 15 19 20 18 14 14 11 10 12 8 10 12 15 18 18 13 16 16 18 18 34 30 39 47 52 51 51 49 49 51 52 51 46 50 54 57 60 58 62 62 59 60 56 57 59 58 58 59 58 58 56 54 56 56 54 58 57 58 57 57 56 56 58 56 57 60 56 58 56 57 56 56 60 59 54 55 55 57 57 57 56 58 59 59 60 61 60 59
13 20 14 14 12 17 13 9 13 16 16 12 13 12 13 12 14 12 9 9 11 16 18 16 13 14 17 19 18 21 25 32 35 40 50 50 50 50 52 52 54 55 54 56 56 58 60 61 62 59 60 57 58 59 57 57 58 57 58 56 56 56 53 55 53 53 55 57 57 57 57 55 58 58 54 54 53 54 55 54 53 51 50 50 48 49 53 53 56 58 58 57 57 56 57 58 59
18 14 13 15 16 12 14 11 7 15 16 14 13 17 11 10 15 10 10 9 13 16 18 16 18 17 18 28 28 34 20 31 28 34 45 47 54 53 55 53 52 50 62 60 57 59 57 59 61 57 59 57 58 58 57 56 58 56 58 57 58 53 53 53 52 55 56 57 58 57 57 56 56 58 57 53 52 50 53 52 51 53 51 47 45 46 51 54 55 55 57 57 56 55 56 55 53
17 20 18 17 14 14 13 15 14 16 14 12 15 17 10 8 14 15 14 17 15 17 18 16 18 20 18 28 23 25 23 25 21 25 40 44 45 49 53 53 55 57 60 60 61 61 60 60 60 56 58 57 58 58 56 57 58 55 57 58 56 53 55 55 54 54 54 57 54 55 56 55 56 55 56 56 54 53 54 56 54 52 52 53 51 50 52 48 53 54 53 53 52 54 53 53 52
12 13 13 12 13 13 13 14 17 16 13 15 13 15 15 10 11 12 15 14 15 19 18 17 20 21 24 32 22 23 22 26 24 25 33 47 49 56 49 52 54 55 58 57 58 60 60 59 59 57 57 57 58 57 57 57 58 55 59 58 56 55 54 54 53 54 54 54 54 56 56 56 54 56 55 56 57 56 57 55 56 55 56 56 55 55 53 51 52 53 55 54 53 54 53 51 51
8 10 10 13 10 26 15 14 14 12 14 14 17 12 13 10 13 13 8 13 16 18 14 18 21 20 26 22 24 26 26 28 27 34 41 47 49 54 57 53 56 55 56 55 56 57 57 58 56 55 55 57 57 56 57 57 58 56 58 57 57 55 55 55 53 55 54 55 54 54 53 53 53 54 55 54 55 56 56 56 55 56 54 54 52 48 50 52 52 51 50 50 51 50 52 52 51
6 7 11 10 11 12 15 14 18 21 20 18 17 18 10 9 12 15 12 15 16 18 23 23 23 27 28 22 25 26 32 31 36 41 40 44 49 51 53 53 52 54 57 56 56 58 58 59 58 53 57 56 56 57 57 56 58 57 59 57 58 54 54 56 53 54 55 54 55 55 53 53 53 54 54 55 55 55 57 57 56 54 55 55 55 56 55 53 53 46 51 52 52 53 53 52 52
6 6 5 12 13 16 16 12 12 13 13 19 14 16 15 9 13 11 13 16 18 17 15 24 28 27 33 21 19 24 32 36 39 44 45 44 52 55 56 59 55 55 55 59 59 59 60 58 60 55 55 55 56 56 57 56 57 58 59 57 58 54 55 55 54 55 54 55 53 55 55 54 54 53 54 54 54 56 57 56 54 54 54 54 54 54 54 54 54 48 51 54 52 52 51 52 52
1 8 8 11 16 16 11 16 14 14 15 15 16 16 12 12 19 25 18 15 17 17 15 22 23 24 24 25 25 28 35 38 41 44 45 48 54 55 56 58 60 56 57 56 58 59 59 59 59 59 54 55 55 54 55 56 57 58 59 58 58 56 54 54 55 54 55 57 54 54 56 55 55 55 55 53 54 56 55 55 54 55 54 54 55 53 53 52 53 50 52 53 51 51 53 52 51
9 3 10 9 14 13 20 21 21 25 16 12 19 19 16 17 19 18 16 16 14 14 13 16 19 18 29 25 26 31 36 37 41 43 45 48 48 53 53 57 57 55 55 56 57 55 55 56 57 58 55 55 54 54 55 57 58 58 59 59 57 57 55 54 55 55 55 58 57 54 56 56 58 56 56 54 54 56 55 54 53 54 55 55 54 55 53 53 53 52 52 53 52 53 53 52 52
-0 4 5 6 8 15 20 14 16 12 11 16 16 16 6 5 13 13 15 16 13 12 11 12 22 24 24 28 35 35 36 38 41 43 45 46 48 50 49 53 53 56 55 58 58 56 55 58 55 56 54 55 54 53 54 57 57 59 59 60 58 59 57 57 58 57 55 56 59 55 58 56 58 57 55 55 55 56 56 55 55 54 55 55 55 54 52 51 54 52 51 52 52 53 52 51 52
0 0 -1 3 11 10 11 16 9 9 12 11 12 7 4 2 8 9 14 16 16 13 13 12 16 21 24 29 32 36 39 42 42 43 44 45 48 49 52 55 48 54 57 57 57 58 57 56 58 57 56 56 55 54 55 57 58 59 59 60 60 61 60 59 58 59 57 54 58 56 57 56 59 57 56 55 56 55 55 56 56 54 55 55 54 55 54 51 52 52 52 52 51 52 50 52 51
2 -0 -4 -4 4 11 10 19 11 12 8 12 15 4 6 4 11 18 17 17 18 14 14 12 14 18 24 30 33 35 39 42 39 41 43 45 46 48 49 53 48 53 54 54 57 60 61 60 61 57 58 57 58 59 58 56 58 61 58 60 61 58 58 57 61 62 59 54 58 60 58 55 58 57 56 56 55 54 54 54 55 54 54 53 53 53 53 52 54 51 52 50 49 52 49 48 47
2 3 4 3 16 10 3 14 4 9 11 8 9 9 9 25 27 15 16 19 21 20 20 23 19 18 21 27 36 38 38 42 42 42 43 45 47 49 48 50 48 49 50 54 57 58 56 60 58 55 57 57 59 60 59 60 62 62 59 60 61 59 60 58 61 60 60 61 59 56 58 59 57 56 56 55 54 53 52 52 52 53 51 52 51 52 52 53 53 52 51 52 47 49 48 46 47
7 8 8 3 10 12 6 9 4 6 6 10 6 7 10 30 25 19 20 27 20 17 16 19 14 17 29 36 38 39 38 40 43 43 44 44 46 46 45 45 47 48 48 48 51 54 53 58 52 52 53 53 55 55 58 58 61 61 60 61 56 60 61 60 60 59 58 58 60 59 62 56 57 57 56 53 52 54 53 51 51 51 51 50 50 50 51 52 50 51 51 54 48 48 48 45 47